Vorticity
4 4 1 4 9 8 6 3 6 12 6 1 4 5 11 10 2 5 7 12 16 6 5 8 5 5 1 3 10 7 6 7 6 5 4 4 5 6 6 7 9 10 8 6 6 6 5 5 5 4 5 5 6 6 6 6 6 7 6 6 5 5 5 4 4 3 2 5 8 9 10 8 6 6 5 5 5 5 4 5 4 4 4 3 3 4
3 1 1 8 8 8 10 5 3 9 5 1 2 0 10 15 6 8 7 2 10 9 7 10 4 3 4 3 6 7 7 8 7 6 6 5 5 5 5 4 6 9 11 9 7 8 6 5 5 5 4 5 6 5 6 6 6 7 7 7 7 6 6 5 4 3 3 7 9 9 8 7 6 4 4 4 3 3 4 3 3 2 2 2 1 1
3 0 2 8 9 8 8 6 4 8 9 -0 -2 2 6 10 8 7 4 5 18 15 4 7 5 3 6 4 3 5 6 7 7 6 5 6 5 4 5 4 4 4 6 8 9 9 9 8 6 6 6 5 5 5 5 5 5 6 6 7 7 7 7 6 5 4 6 8 9 9 7 5 5 4 3 3 3 3 2 3 2 1 -0 -0 0 1
5 2 2 5 8 11 6 6 4 5 14 2 -9 3 8 6 8 8 5 4 16 21 8 4 8 6 5 4 3 3 3 4 5 5 5 5 4 4 5 4 4 4 3 4 5 6 9 10 9 8 7 6 6 6 5 5 5 6 6 7 8 8 7 7 6 6 7 9 8 7 6 5 4 4 3 2 2 2 2 2 1 1 1 -0 1 1
6 3 3 3 8 11 4 5 7 3 12 8 -4 3 7 5 9 9 4 -5 -1 10 7 2 6 7 4 3 5 3 1 4 4 3 4 5 5 4 5 5 4 4 4 4 4 3 4 6 8 8 8 9 9 7 7 7 7 7 8 8 8 8 9 8 7 8 8 8 8 6 4 4 4 3 3 2 2 2 2 2 1 1 2 2 2 3
8 6 6 4 6 9 4 5 8 4 5 8 6 2 -2 3 9 6 3 4 10 12 8 3 1 6 8 4 6 6 3 3 3 4 4 4 5 4 3 5 5 4 3 4 4 3 5 4 3 5 6 7 8 8 8 8 9 8 7 7 8 7 8 8 7 7 7 7 6 5 4 3 3 3 2 2 2 2 2 3 4 4 5 6 7 8
12 7 6 7 4 4 7 5 5 8 6 6 8 0 -3 1 3 4 -0 -1 8 13 14 10 0 1 8 8 8 6 5 7 6 3 4 4 5 6 3 2 3 3 2 2 4 4 5 5 4 4 5 5 6 7 7 8 8 9 8 7 7 6 6 6 6 6 5 6 4 4 4 3 3 2 2 3 3 3 4 5 6 8 10 11 11 12
21 13 5 6 5 2 6 7 6 10 8 8 8 -0 3 3 -4 4 6 0 6 11 14 15 7 0 -2 6 13 7 3 7 6 4 5 5 5 5 4 3 3 3 3 2 3 4 5 6 5 5 6 6 7 6 7 7 7 7 8 8 6 7 6 4 5 5 3 3 3 3 3 3 3 3 3 4 3 3 4 5 8 11 13 13 12 11
23 23 11 6 8 4 3 4 6 10 5 8 9 -1 5 9 3 5 1 -2 8 10 11 15 15 11 1 1 10 11 7 3 3 5 4 3 5 6 5 4 4 3 4 5 3 3 4 5 6 5 5 5 6 8 7 6 6 7 7 8 8 7 6 6 4 4 4 4 4 3 3 3 3 4 4 3 3 4 5 6 10 13 12 10 9 10
14 22 18 10 10 5 2 3 7 10 3 6 9 -2 -2 6 10 9 -3 -3 8 8 11 13 11 13 12 4 2 6 8 6 7 7 4 5 4 4 7 6 6 6 6 6 5 4 3 4 5 4 5 5 5 6 6 5 6 8 6 5 7 6 5 6 6 5 6 5 5 3 3 4 3 4 4 4 6 6 5 7 11 12 9 8 8 9
14 19 17 12 16 9 3 4 7 10 5 5 7 -5 -7 4 13 15 8 4 2 -2 6 9 4 8 12 7 1 1 5 10 12 7 7 10 5 7 13 9 6 7 8 7 5 5 4 5 6 6 6 5 4 4 3 5 6 6 6 5 5 6 7 8 8 7 6 5 6 5 4 5 5 6 6 7 9 8 5 9 12 10 9 8 8 8
15 16 15 13 18 14 7 5 6 9 6 7 9 -6 -9 2 5 11 17 11 4 2 6 8 7 7 8 6 2 -0 6 10 8 6 8 7 4 7 10 12 11 6 5 6 5 7 8 7 7 7 9 7 5 6 4 4 6 5 5 5 5 6 7 8 8 8 8 7 6 6 6 7 7 7 7 9 10 7 6 10 10 8 7 7 6 6
15 15 18 18 19 17 12 6 5 9 5 6 13 1 -6 1 -0 8 16 7 4 7 4 10 14 10 9 8 6 6 8 8 7 8 6 4 11 15 12 14 14 5 3 4 3 7 11 14 12 7 7 8 6 7 6 5 6 6 6 6 6 5 4 6 7 7 8 7 5 5 6 6 6 5 6 10 10 7 7 9 7 5 5 4 4 5
12 12 17 21 22 21 18 11 4 7 6 5 11 3 -7 -6 -4 8 15 3 4 7 3 10 12 9 16 16 15 13 3 6 19 16 6 3 8 16 19 13 -1 -6 1 3 3 9 13 18 20 13 7 8 8 9 8 8 9 9 9 7 6 5 6 7 8 8 7 4 2 3 5 5 5 5 7 9 7 6 7 6 4 4 4 4 4 5
10 7 11 20 23 20 20 18 8 8 10 6 11 8 -4 -8 -11 -2 10 5 1 -1 -0 11 8 -0 7 12 20 22 3 -3 9 12 12 7 -1 9 21 14 2 1 2 2 7 13 16 18 18 18 14 8 7 9 9 11 12 12 11 10 9 9 10 10 9 9 7 3 1 3 7 7 5 7 10 9 7 7 6 4 4 4 4 4 6 6
7 7 9 15 24 26 23 21 15 10 8 4 10 10 1 2 -5 -14 -1 10 9 1 -3 7 12 7 2 -4 6 22 16 -5 -12 1 12 6 5 20 25 14 7 6 1 5 14 13 15 20 16 16 19 14 9 9 11 12 13 13 12 11 12 12 12 11 9 9 7 4 4 6 8 7 6 8 9 8 8 7 5 4 5 5 3 4 6 5
7 12 13 7 15 26 23 21 19 11 7 8 15 10 1 8 4 -12 -8 5 8 10 8 3 5 18 22 2 -12 3 20 8 -3 5 4 -1 7 10 6 5 5 6 3 1 6 8 11 16 11 10 17 20 18 14 14 14 12 12 11 11 12 12 13 12 11 11 10 10 11 10 9 7 7 7 7 8 7 5 5 6 7 5 3 3 4 5
9 11 18 11 9 18 22 22 21 14 10 9 16 17 8 6 5 -4 -6 -2 -1 1 7 10 6 8 17 17 6 1 8 9 8 10 3 8 9 -15 -16 5 5 5 8 -3 -3 7 10 8 4 6 12 16 18 15 11 11 9 9 10 11 12 11 11 10 9 11 12 13 14 13 12 9 7 7 7 7 5 5 7 7 6 5 4 4 7 11
6 2 9 16 12 12 19 23 21 19 13 1 4 19 23 11 -2 -4 -5 -4 5 5 -0 8 16 8 2 10 17 15 15 12 11 13 8 5 -2 -16 -0 17 7 6 7 -5 -4 5 9 12 6 2 5 7 9 10 8 6 6 9 11 11 12 11 9 8 9 11 11 12 13 13 12 10 8 8 7 6 6 8 8 7 6 6 5 7 9 8
7 4 0 9 12 6 12 24 23 20 19 9 -3 3 25 32 14 4 3 -9 -11 3 6 2 6 11 11 8 6 17 32 22 6 3 -2 -5 -3 4 22 23 10 12 8 -4 -3 -3 0 11 11 5 2 1 3 6 7 6 5 8 10 11 12 11 9 8 10 11 10 10 10 10 11 9 8 8 7 9 10 8 7 6 5 4 4 5 6 6
8 10 6 10 16 8 9 25 28 19 18 23 6 -19 -5 31 32 12 10 7 -7 -9 3 8 5 5 11 13 8 16 29 22 13 9 -0 9 18 6 10 26 20 11 7 3 1 -2 -3 2 8 10 4 -0 1 3 5 7 6 8 10 10 11 11 10 10 10 9 8 8 8 10 10 8 9 10 11 10 7 4 4 2 3 5 5 5 7 10
5 7 7 5 13 17 11 14 23 23 19 26 28 2 -22 -3 29 27 12 14 15 -0 -12 -3 12 16 12 12 7 3 6 3 11 22 15 23 33 8 -3 21 25 11 7 7 5 3 2 -1 0 4 3 2 2 1 4 5 4 8 10 10 10 10 11 11 10 8 6 5 8 10 10 9 11 11 9 6 4 2 2 3 8 13 11 8 9 10
11 9 6 -4 -1 15 16 10 17 25 22 21 32 36 9 -18 -5 15 7 -5 4 15 2 -18 -10 9 17 20 12 6 18 18 9 12 7 -1 5 6 -2 1 14 21 13 4 7 7 4 2 1 -0 2 6 2 -2 1 1 2 6 6 8 10 9 11 13 12 10 7 7 11 10 8 9 11 8 5 4 3 4 6 9 14 13 8 6 7 8
8 4 6 7 1 4 13 17 18 20 21 15 8 18 27 9 -11 -7 4 2 -1 13 17 0 -7 -8 -12 -4 1 3 26 40 21 7 5 -4 -10 -6 -6 -3 21 36 17 2 6 6 4 7 7 4 8 12 8 2 1 -0 0 2 2 6 11 9 9 13 15 14 11 11 9 6 7 8 7 5 4 4 4 7 10 9 8 6 4 5 6 7
13 7 4 9 8 -0 -3 2 5 9 15 14 3 1 16 26 17 2 -3 2 3 -0 -0 4 8 4 -6 -11 -14 -14 -1 15 20 17 12 6 1 -5 -9 0 24 31 11 2 6 5 5 8 6 5 9 14 11 5 4 3 0 1 2 4 9 12 11 11 13 14 13 9 6 6 8 6 5 5 6 8 9 10 9 4 1 1 2 4 5 7
13 17 7 2 3 -5 -9 0 8 13 19 21 19 19 20 22 27 23 5 -5 -0 2 -4 -8 -8 4 22 20 2 -7 -5 1 20 31 18 6 6 0 -16 -18 6 19 8 2 6 6 4 2 3 4 2 7 12 7 3 4 2 3 4 1 7 14 13 10 10 12 9 6 6 7 6 6 7 9 11 12 11 9 5 3 1 -0 2 4 6 7
-3 5 6 3 4 2 8 20 19 11 16 25 27 23 16 10 19 33 29 11 3 6 5 -3 -13 -19 -7 14 23 12 -3 2 19 17 3 4 11 6 -9 -15 -1 12 6 1 3 5 4 1 3 4 -2 -1 10 10 6 6 5 5 3 1 5 12 14 11 10 11 9 7 8 9 9 9 11 12 13 9 6 6 6 6 5 3 4 5 6 8
-2 0 4 5 9 12 14 16 14 11 8 13 25 29 20 10 7 14 23 20 11 10 11 9 7 -10 -34 -26 8 18 4 12 28 15 -7 -2 9 7 5 7 9 9 7 4 2 1 4 5 4 5 1 -1 4 8 6 5 5 3 2 2 5 10 13 12 9 11 10 8 9 10 9 9 9 7 3 -1 -0 5 8 9 7 0 -1 3 6 9
5 4 6 6 8 13 13 6 7 16 14 6 10 22 25 23 13 2 7 17 13 8 10 7 9 15 2 -21 -22 -2 10 12 22 23 3 -8 4 15 16 15 15 15 10 3 0 2 3 3 3 3 2 3 5 3 2 3 4 5 6 6 6 10 13 11 10 11 10 8 9 10 9 9 7 4 1 -1 3 8 11 10 5 -4 -5 0 3 7
7 6 7 8 5 8 14 10 1 -2 2 7 8 10 15 22 25 16 9 15 18 15 15 8 -2 5 23 18 -11 -22 -13 -4 17 44 33 2 -1 12 13 11 14 17 12 1 -1 3 2 1 2 2 2 4 2 -0 3 9 8 7 6 5 7 11 12 13 14 12 11 10 9 9 9 9 8 6 6 5 5 8 10 9 4 1 3 4 2 3
6 4 7 10 6 3 7 15 11 -2 -7 -2 4 10 11 8 17 25 20 15 16 14 14 17 14 2 2 17 18 -1 -20 -34 -27 4 25 23 17 10 3 3 6 9 11 9 3 0 2 2 -0 0 4 4 -0 0 7 11 8 7 8 8 11 14 13 14 15 11 8 5 2 4 7 7 7 8 7 7 6 6 7 5 1 2 7 8 5 2
8 6 4 4 6 6 6 10 13 11 10 2 -8 -2 9 7 7 17 21 17 13 11 12 12 11 8 1 2 10 12 2 -19 -40 -42 -24 -2 11 10 4 1 2 6 10 12 6 -1 1 3 1 1 5 5 4 4 6 8 9 11 12 10 12 14 14 15 13 7 1 -4 -3 4 6 3 3 4 4 5 6 5 5 5 3 2 4 7 6 4
4 8 8 5 4 5 7 10 11 14 18 13 3 5 12 4 -1 5 11 16 18 19 26 27 17 16 21 15 5 4 9 14 12 1 -9 -12 -8 -3 -1 -1 2 8 11 13 14 11 4 0 1 3 6 9 10 6 3 7 11 9 6 7 10 12 14 16 13 6 0 -2 0 2 -1 -2 -2 -3 -2 -0 2 3 4 4 3 2 3 4 6 7
12 5 9 14 11 4 3 6 10 12 9 6 13 29 29 10 0 2 1 4 12 10 12 26 33 31 31 26 18 16 17 16 19 22 19 13 3 -4 -2 4 5 6 7 10 18 20 10 0 1 6 9 11 11 5 3 5 7 2 -0 5 8 7 8 11 10 9 8 6 2 -5 -9 -5 -1 -1 -1 -1 -0 1 2 4 3 3 3 5 7 7
22 11 1 6 10 7 5 3 5 7 6 3 6 20 31 24 12 7 3 3 11 11 4 6 12 17 26 29 24 26 30 25 19 17 19 22 19 10 7 8 8 7 8 11 17 17 8 1 4 9 11 12 8 4 3 2 3 1 -0 2 3 1 2 4 4 8 11 9 2 -6 -7 -1 4 5 4 2 1 -0 1 5 4 2 4 5 6 5
10 20 9 5 8 8 8 8 8 5 3 5 7 8 16 24 20 10 4 4 9 12 10 8 2 -2 8 26 32 26 22 25 27 24 19 18 20 18 11 4 2 1 4 14 23 19 8 3 7 10 10 8 4 2 3 2 2 2 -0 -1 1 1 2 1 0 4 7 6 2 -2 -2 1 3 4 4 4 3 -0 -0 3 2 3 5 3 5 6
-1 11 12 10 9 6 6 8 8 7 4 4 10 9 3 9 19 13 -1 1 15 20 11 9 14 8 -0 10 20 9 -1 10 27 31 24 16 14 18 18 15 11 4 3 14 18 10 4 4 5 6 5 4 3 3 3 2 2 1 -0 -1 1 3 2 1 2 4 3 3 2 -0 0 1 2 3 3 2 3 0 -0 2 2 5 5 -0 3 8
0 -0 4 8 7 2 3 6 6 7 8 5 6 9 5 4 13 15 5 2 17 26 12 -3 5 12 5 3 8 4 1 11 23 27 23 15 13 19 21 22 23 18 18 24 17 3 2 6 4 3 3 2 4 4 2 1 1 0 1 1 1 1 0 -0 3 4 1 1 2 0 2 3 3 4 1 -0 3 2 -0 0 -0 3 6 -2 -3 6
5 1 -0 7 14 8 1 5 9 7 6 6 3 2 4 0 -4 1 7 6 13 24 16 -0 1 10 8 4 6 8 11 16 20 25 26 20 16 18 16 18 23 21 18 22 19 7 3 4 4 4 4 3 4 4 2 1 1 1 3 3 1 -0 -0 -0 1 2 1 2 2 1 2 3 3 3 1 -1 1 1 2 3 -2 -0 6 -0 -5 7
6 5 -1 -1 9 14 9 9 11 6 6 12 10 3 4 4 -5 -3 9 12 13 20 18 9 9 12 10 10 10 9 14 20 19 15 17 21 21 19 16 17 23 24 20 19 18 10 3 3 4 5 5 3 2 2 2 2 2 4 7 5 1 -1 -0 -0 1 2 1 2 3 2 1 2 4 4 -0 -3 -1 3 7 5 -1 -1 5 3 1 13
5 7 8 0 -6 -3 1 4 6 5 7 10 8 5 9 14 11 9 13 16 13 14 16 16 13 9 8 9 7 7 13 21 21 14 12 15 16 18 23 24 25 29 27 20 17 12 5 3 5 4 3 2 -0 -0 0 1 2 6 8 7 3 0 -1 0 2 3 3 2 2 1 0 3 6 3 -3 -3 4 8 7 4 3 5 3 1 7 20
7 5 7 7 2 -6 -11 -9 -5 1 6 6 4 3 7 15 18 9 4 10 15 12 15 20 16 11 11 10 8 10 11 13 19 22 18 12 8 13 24 27 26 29 25 19 18 15 5 1 3 3 2 2 2 -0 -1 0 2 4 4 4 3 1 0 1 2 3 4 3 2 3 4 5 6 2 -1 1 6 10 8 5 6 6 1 5 20 26
16 13 6 6 10 6 -4 -6 -3 -1 1 2 4 6 4 7 15 12 5 9 12 7 8 17 18 14 11 7 7 10 11 14 21 22 20 21 18 14 16 18 20 23 20 16 18 14 3 -1 1 2 2 3 2 -2 -2 1 2 3 3 4 5 5 4 4 4 4 4 3 2 3 4 4 4 3 2 4 6 8 9 7 7 7 8 17 29 25
15 18 13 5 7 10 7 6 4 -1 -4 -3 2 6 3 -1 5 12 10 9 8 3 4 10 13 14 14 10 7 5 6 12 16 15 20 29 27 19 15 13 15 17 15 16 20 15 4 0 2 4 4 4 2 0 2 4 3 4 7 7 6 7 5 4 7 7 5 6 6 5 3 3 5 6 6 8 10 10 11 11 11 13 19 28 31 19
12 19 21 15 13 13 13 12 9 6 5 3 1 2 4 4 10 15 14 10 6 3 8 13 10 10 14 15 12 8 2 0 3 10 21 27 25 25 21 9 7 13 14 16 22 21 9 3 5 8 5 3 3 2 3 5 4 4 6 6 6 6 4 5 8 8 8 8 7 5 5 6 7 8 9 10 11 11 11 11 11 15 22 27 21 7
4 9 14 16 15 12 11 11 9 7 8 5 -1 3 8 8 9 13 12 8 2 3 13 18 9 4 11 15 10 5 4 5 7 11 14 17 20 27 23 8 2 7 10 13 22 26 18 8 6 7 5 1 1 2 2 3 3 3 5 5 5 3 3 6 8 6 6 10 8 3 5 8 8 7 7 7 8 9 8 7 11 17 19 16 10 7
18 16 13 10 7 3 5 10 6 -1 -1 -0 -0 8 17 15 13 14 13 10 8 9 14 15 6 2 12 18 11 6 7 12 16 15 14 19 23 23 20 13 5 4 9 12 14 17 18 13 8 5 1 -3 -2 1 2 2 3 5 7 8 8 7 6 8 8 3 5 12 11 4 4 8 8 4 4 6 7 6 5 8 12 14 12 10 10 10
18 25 22 15 9 4 4 8 6 2 5 7 -0 -5 0 8 14 19 17 13 10 8 9 11 6 3 9 13 11 9 6 7 17 24 22 23 25 21 16 12 4 4 10 13 12 14 15 11 6 3 2 3 4 5 4 6 8 6 6 10 12 9 5 3 2 3 6 8 6 3 5 8 6 3 3 5 6 6 7 9 11 10 10 9 8 9
-8 6 17 17 12 10 12 8 -0 -1 7 11 6 -2 -1 5 12 18 21 18 10 6 10 12 7 7 15 17 10 9 10 12 20 22 12 8 14 17 15 9 3 4 7 7 10 16 15 11 10 8 6 5 5 4 6 9 10 9 9 7 2 1 8 16 20 22 17 7 0 3 8 7 4 3 4 5 7 9 9 8 7 8 10 9 9 10
10 14 22 26 16 11 21 27 18 12 13 13 13 13 8 2 2 10 18 19 13 11 15 15 7 5 16 20 13 11 16 21 21 15 7 6 10 8 5 3 3 7 10 7 7 10 10 10 9 6 4 3 3 5 9 10 8 8 6 -3 -8 -1 16 28 32 26 12 2 -0 4 8 8 5 4 6 7 8 8 8 8 7 7 9 10 9 8
29 32 20 24 25 14 16 23 22 20 18 14 13 14 7 0 3 11 17 20 20 18 17 16 12 7 8 12 13 15 20 20 13 7 6 11 14 12 9 10 10 10 10 10 9 7 6 6 6 5 6 7 6 5 7 8 6 3 -1 -1 3 10 14 18 22 15 2 -2 2 6 8 9 6 6 8 9 8 7 8 9 10 9 11 10 8 8
Height
5881 5882 5882 5884 5888 5890 5893 5895 5897 5900 5902 5905 5908 5908 5906 5907 5908 5910 5909 5906 5906 5907 5908 5909 5909 5909 5910 5909 5910 5911 5911 5911 5912 5912 5912 5912 5912 5912 5912 5912 5913 5913 5914 5914 5915 5915 5916 5916 5917 5918 5918 5919 5920 5920 5921 5922 5922 5923 5924 5925 5925 5926 5926 5927 5927 5928 5928 5929 5929 5929 5930 5930 5930 5930 5930 5930 5931 5931 5931 5931 5931 5930 5929 5928 5929 5929
5877 5878 5880 5884 5886 5889 5892 5893 5895 5897 5900 5902 5906 5908 5906 5906 5907 5909 5910 5907 5905 5907 5907 5907 5908 5908 5909 5909 5909 5910 5910 5911 5911 5912 5912 5912 5912 5912 5912 5912 5912 5913 5913 5914 5914 5915 5916 5916 5917 5917 5918 5918 5919 5920 5920 5921 5922 5923 5924 5924 5925 5925 5926 5926 5927 5927 5928 5928 5929 5929 5929 5930 5930 5930 5930 5930 5930 5931 5931 5930 5930 5930 5929 5928 5928 5928
5873 5876 5880 5883 5884 5887 5889 5891 5893 5894 5897 5899 5903 5907 5907 5906 5906 5909 5912 5908 5903 5905 5906 5906 5906 5907 5907 5908 5908 5909 5909 5910 5911 5911 5911 5911 5912 5912 5912 5912 5912 5912 5913 5913 5914 5915 5915 5916 5916 5917 5917 5918 5918 5919 5920 5920 5921 5922 5923 5923 5924 5924 5925 5925 5926 5926 5927 5928 5928 5928 5929 5929 5929 5929 5929 5930 5930 5930 5930 5930 5929 5929 5928 5928 5927 5927
5872 5876 5879 5881 5881 5883 5885 5887 5890 5891 5894 5896 5899 5904 5905 5905 5907 5909 5911 5907 5902 5903 5904 5904 5905 5905 5906 5906 5907 5907 5908 5909 5910 5910 5910 5910 5911 5911 5911 5911 5911 5911 5912 5912 5913 5914 5915 5915 5916 5917 5917 5917 5918 5919 5919 5920 5921 5921 5922 5922 5923 5923 5924 5924 5925 5925 5926 5927 5927 5928 5928 5928 5928 5929 5929 5929 5929 5929 5929 5928 5928 5927 5927 5927 5926 5925
5870 5874 5876 5878 5878 5880 5882 5883 5886 5889 5890 5892 5896 5899 5902 5905 5907 5908 5907 5903 5901 5902 5902 5903 5903 5902 5904 5904 5905 5906 5907 5908 5909 5909 5909 5909 5910 5910 5910 5911 5911 5911 5911 5912 5912 5913 5914 5914 5915 5916 5917 5917 5918 5918 5919 5919 5920 5920 5921 5922 5922 5922 5923 5923 5924 5924 5925 5926 5927 5927 5927 5927 5928 5928 5928 5928 5928 5927 5927 5927 5926 5926 5925 5925 5924 5924
5866 5870 5872 5874 5875 5876 5878 5880 5883 5886 5888 5890 5892 5895 5900 5905 5907 5908 5907 5902 5899 5899 5899 5900 5900 5900 5902 5902 5903 5905 5905 5906 5907 5907 5908 5908 5908 5909 5909 5910 5910 5910 5910 5911 5911 5912 5912 5913 5914 5915 5916 5916 5917 5917 5918 5918 5919 5920 5920 5921 5921 5921 5922 5922 5923 5923 5924 5925 5925 5926 5926 5926 5927 5927 5927 5926 5926 5926 5925 5925 5925 5924 5924 5923 5922 5922
5862 5865 5867 5869 5871 5872 5874 5877 5879 5882 5885 5887 5890 5893 5896 5900 5903 5905 5906 5901 5897 5897 5898 5898 5897 5899 5900 5900 5901 5902 5902 5904 5904 5905 5906 5906 5906 5907 5907 5908 5909 5909 5909 5910 5910 5911 5911 5912 5913 5914 5914 5915 5916 5916 5917 5918 5918 5919 5920 5920 5920 5921 5921 5921 5922 5922 5923 5924 5924 5924 5925 5925 5925 5925 5925 5925 5925 5924 5924 5923 5923 5922 5922 5921 5920 5920
5859 5861 5862 5865 5868 5869 5870 5873 5876 5880 5882 5884 5889 5892 5893 5894 5897 5900 5902 5900 5897 5896 5895 5894 5895 5897 5897 5897 5899 5900 5900 5901 5902 5902 5903 5904 5905 5905 5905 5905 5907 5908 5908 5909 5909 5910 5910 5911 5912 5912 5913 5914 5914 5915 5916 5917 5917 5918 5919 5919 5919 5920 5920 5920 5921 5921 5922 5922 5923 5923 5923 5924 5924 5924 5924 5923 5923 5923 5922 5922 5921 5920 5920 5919 5919 5918
5856 5858 5858 5862 5866 5865 5866 5871 5875 5877 5878 5882 5887 5889 5890 5891 5892 5895 5898 5899 5897 5894 5892 5891 5893 5893 5893 5895 5897 5897 5897 5898 5899 5900 5901 5902 5903 5903 5903 5902 5903 5905 5907 5908 5908 5908 5909 5909 5910 5911 5911 5912 5912 5914 5915 5915 5916 5917 5917 5918 5918 5919 5919 5919 5920 5920 5921 5921 5921 5921 5922 5922 5922 5922 5922 5922 5922 5921 5921 5920 5919 5919 5918 5917 5917 5916
5850 5853 5853 5857 5861 5861 5863 5869 5873 5873 5875 5881 5884 5885 5889 5891 5891 5891 5893 5896 5895 5890 5888 5889 5889 5888 5890 5893 5894 5893 5895 5896 5897 5898 5898 5899 5900 5901 5902 5900 5900 5902 5904 5905 5906 5906 5907 5908 5908 5909 5909 5910 5911 5912 5913 5913 5915 5915 5916 5917 5917 5917 5918 5918 5919 5919 5920 5920 5920 5920 5920 5920 5920 5920 5920 5920 5919 5919 5919 5918 5918 5917 5916 5916 5915 5914
5844 5847 5848 5850 5856 5858 5860 5866 5869 5869 5872 5877 5879 5881 5886 5890 5890 5889 5888 5891 5891 5886 5884 5886 5887 5887 5887 5889 5891 5891 5893 5895 5895 5896 5896 5896 5898 5900 5900 5899 5899 5899 5900 5903 5904 5904 5905 5906 5906 5907 5908 5909 5909 5910 5911 5912 5913 5914 5914 5915 5915 5916 5916 5917 5917 5918 5918 5918 5918 5918 5918 5918 5918 5918 5918 5918 5917 5917 5917 5917 5916 5915 5915 5914 5913 5912
5840 5841 5843 5847 5852 5855 5857 5861 5863 5865 5868 5871 5874 5878 5881 5883 5884 5884 5884 5885 5883 5882 5884 5886 5886 5885 5884 5886 5889 5890 5891 5892 5892 5893 5894 5894 5896 5898 5898 5899 5899 5898 5897 5899 5901 5903 5903 5904 5904 5905 5906 5907 5907 5908 5909 5910 5911 5911 5912 5913 5913 5914 5915 5915 5915 5916 5916 5916 5916 5916 5916 5917 5916 5916 5916 5915 5915 5915 5915 5915 5914 5913 5913 5912 5912 5911
5836 5837 5839 5843 5847 5850 5853 5856 5858 5859 5862 5865 5869 5875 5876 5877 5879 5878 5878 5879 5878 5879 5884 5887 5886 5883 5881 5883 5887 5888 5888 5889 5890 5891 5893 5893 5894 5896 5897 5898 5897 5896 5895 5895 5897 5901 5902 5902 5903 5903 5904 5905 5905 5906 5907 5907 5908 5909 5910 5911 5912 5912 5913 5913 5913 5914 5914 5914 5914 5914 5914 5915 5914 5914 5914 5913 5913 5913 5913 5913 5912 5911 5911 5911 5910 5910
5832 5833 5835 5838 5842 5844 5848 5851 5851 5853 5857 5859 5863 5868 5868 5870 5873 5873 5874 5877 5877 5879 5882 5883 5882 5879 5878 5880 5883 5885 5885 5887 5888 5888 5890 5892 5892 5892 5893 5894 5894 5895 5895 5893 5895 5899 5900 5901 5901 5902 5902 5903 5904 5904 5904 5905 5907 5908 5908 5909 5910 5910 5910 5911 5911 5911 5912 5912 5912 5912 5913 5913 5912 5912 5911 5911 5911 5911 5911 5911 5910 5909 5909 5909 5909 5909
5828 5828 5831 5834 5836 5839 5842 5846 5848 5852 5854 5855 5860 5864 5863 5863 5868 5871 5873 5874 5875 5878 5880 5880 5876 5874 5877 5879 5881 5882 5883 5885 5885 5885 5887 5890 5891 5890 5890 5891 5892 5894 5895 5894 5895 5897 5899 5899 5900 5900 5901 5902 5902 5902 5903 5904 5905 5905 5906 5907 5907 5908 5908 5908 5909 5909 5910 5910 5910 5910 5911 5910 5910 5910 5909 5909 5909 5909 5909 5909 5908 5908 5908 5908 5908 5907
5824 5825 5828 5829 5831 5834 5838 5842 5846 5849 5849 5851 5857 5859 5857 5859 5865 5870 5871 5872 5875 5877 5877 5876 5873 5872 5876 5878 5878 5878 5880 5881 5881 5882 5885 5887 5890 5890 5887 5888 5891 5892 5894 5894 5895 5896 5897 5898 5898 5899 5900 5901 5901 5901 5901 5902 5903 5903 5904 5904 5905 5905 5906 5906 5907 5907 5907 5907 5908 5908 5908 5908 5908 5908 5907 5907 5907 5907 5907 5907 5907 5907 5907 5906 5906 5906
5821 5822 5824 5824 5826 5829 5833 5837 5840 5843 5845 5847 5850 5852 5854 5859 5863 5867 5868 5870 5873 5872 5871 5873 5873 5872 5874 5875 5874 5874 5875 5877 5878 5880 5883 5886 5890 5888 5883 5885 5888 5889 5891 5892 5893 5894 5895 5896 5897 5898 5899 5899 5899 5900 5900 5900 5901 5901 5901 5902 5902 5903 5904 5904 5904 5904 5905 5905 5905 5906 5906 5906 5906 5905 5905 5905 5905 5905 5906 5906 5905 5905 5905 5905 5905 5904
5818 5820 5820 5820 5822 5823 5826 5830 5833 5836 5841 5844 5845 5849 5855 5857 5858 5861 5864 5866 5867 5866 5867 5870 5871 5872 5872 5870 5872 5872 5872 5875 5877 5878 5881 5885 5887 5884 5881 5883 5885 5886 5888 5890 5890 5892 5893 5894 5895 5896 5897 5897 5897 5898 5898 5899 5899 5899 5899 5899 5900 5900 5901 5901 5901 5902 5902 5902 5903 5903 5904 5904 5903 5903 5903 5903 5903 5904 5904 5904 5904 5904 5904 5903 5903 5902
5813 5816 5817 5816 5818 5819 5819 5824 5827 5829 5834 5839 5843 5847 5850 5848 5849 5854 5856 5858 5860 5861 5863 5866 5867 5870 5869 5867 5869 5870 5870 5873 5875 5875 5877 5881 5883 5881 5880 5881 5882 5882 5883 5886 5888 5889 5891 5893 5893 5895 5895 5896 5896 5896 5897 5897 5897 5897 5897 5897 5898 5898 5898 5899 5899 5900 5900 5900 5900 5901 5901 5901 5901 5901 5901 5902 5902 5902 5902 5902 5902 5902 5902 5902 5901 5900
5808 5810 5814 5814 5813 5814 5814 5817 5822 5825 5828 5834 5839 5841 5842 5842 5846 5849 5849 5850 5855 5858 5860 5863 5864 5865 5866 5867 5867 5867 5868 5870 5871 5873 5875 5877 5881 5883 5880 5878 5880 5882 5882 5884 5887 5887 5889 5890 5891 5893 5893 5894 5894 5894 5895 5895 5895 5896 5896 5896 5896 5896 5896 5897 5897 5897 5898 5898 5898 5899 5899 5899 5899 5899 5900 5900 5900 5901 5901 5901 5901 5900 5900 5900 5899 5898
5805 5804 5809 5812 5809 5808 5811 5813 5818 5822 5824 5826 5830 5832 5836 5838 5842 5845 5845 5847 5851 5854 5856 5859 5859 5859 5863 5868 5868 5865 5866 5867 5868 5872 5873 5874 5880 5885 5882 5877 5877 5881 5882 5882 5885 5886 5886 5888 5889 5890 5891 5891 5892 5893 5893 5893 5894 5894 5894 5894 5894 5894 5895 5895 5895 5895 5896 5896 5897 5897 5897 5897 5897 5898 5898 5899 5899 5899 5899 5899 5899 5898 5898 5897 5897 5896
5801 5800 5803 5808 5805 5803 5808 5811 5814 5818 5819 5820 5823 5826 5831 5835 5837 5839 5841 5844 5846 5846 5850 5855 5856 5857 5861 5866 5866 5863 5863 5865 5867 5870 5872 5873 5878 5882 5882 5879 5876 5878 5880 5880 5882 5884 5884 5885 5886 5887 5888 5889 5890 5891 5891 5891 5892 5892 5892 5892 5893 5893 5893 5893 5893 5894 5894 5894 5895 5895 5895 5895 5896 5896 5897 5897 5897 5897 5897 5897 5897 5896 5895 5895 5894 5893
5797 5797 5797 5802 5803 5802 5804 5806 5808 5811 5814 5816 5819 5822 5827 5830 5832 5834 5836 5839 5841 5841 5846 5850 5851 5854 5858 5862 5863 5860 5859 5862 5865 5867 5868 5870 5873 5875 5880 5880 5874 5874 5878 5878 5880 5882 5882 5883 5884 5884 5885 5887 5888 5889 5889 5889 5890 5891 5891 5891 5891 5891 5891 5891 5892 5892 5892 5893 5893 5893 5893 5894 5895 5895 5896 5896 5896 5895 5895 5895 5895 5894 5893 5892 5891 5890
5791 5792 5792 5795 5799 5801 5802 5802 5803 5805 5808 5811 5813 5815 5819 5823 5826 5829 5832 5836 5837 5837 5841 5844 5844 5848 5853 5857 5859 5858 5856 5858 5861 5862 5863 5866 5869 5871 5876 5876 5871 5872 5876 5876 5878 5879 5880 5881 5881 5882 5883 5884 5885 5887 5887 5887 5888 5889 5889 5889 5889 5889 5889 5889 5890 5890 5890 5891 5891 5891 5892 5893 5893 5894 5894 5894 5894 5893 5893 5893 5892 5891 5890 5889 5888 5887
5784 5786 5788 5790 5793 5796 5797 5797 5798 5799 5801 5805 5808 5809 5812 5818 5821 5824 5828 5832 5831 5830 5835 5839 5839 5843 5848 5851 5854 5856 5854 5852 5855 5857 5860 5863 5865 5868 5871 5869 5867 5871 5872 5873 5875 5877 5877 5878 5879 5880 5881 5882 5883 5884 5885 5885 5886 5887 5887 5887 5887 5887 5887 5887 5888 5888 5888 5889 5889 5890 5890 5891 5892 5892 5892 5892 5892 5891 5891 5891 5890 5889 5888 5887 5886 5884
5778 5780 5782 5784 5786 5788 5790 5792 5793 5795 5797 5800 5803 5806 5809 5813 5815 5817 5822 5823 5821 5823 5829 5832 5834 5840 5845 5846 5849 5852 5849 5848 5851 5853 5857 5861 5862 5865 5867 5864 5865 5869 5869 5870 5872 5873 5874 5876 5877 5878 5879 5880 5881 5881 5882 5883 5883 5884 5885 5886 5886 5885 5885 5885 5886 5886 5887 5887 5887 5888 5889 5889 5890 5890 5890 5890 5890 5889 5889 5888 5888 5886 5885 5883 5882 5881
5771 5773 5775 5777 5781 5784 5788 5791 5792 5794 5796 5796 5797 5801 5805 5808 5810 5812 5815 5815 5816 5820 5822 5823 5828 5835 5840 5842 5845 5848 5846 5844 5848 5851 5854 5857 5860 5861 5861 5860 5863 5866 5866 5867 5869 5869 5871 5872 5874 5875 5876 5877 5878 5879 5880 5880 5881 5882 5883 5883 5883 5883 5883 5883 5884 5885 5885 5885 5886 5887 5887 5887 5888 5888 5888 5888 5888 5887 5886 5886 5885 5884 5883 5881 5879 5878
5766 5769 5770 5773 5777 5781 5785 5788 5789 5790 5793 5795 5795 5796 5799 5803 5806 5808 5808 5809 5814 5816 5815 5818 5823 5826 5831 5838 5842 5845 5844 5842 5844 5847 5851 5853 5855 5856 5856 5857 5860 5862 5862 5864 5865 5866 5867 5868 5870 5872 5872 5874 5875 5876 5877 5878 5878 5879 5880 5881 5881 5881 5881 5881 5882 5883 5883 5883 5884 5885 5885 5886 5886 5886 5886 5886 5885 5885 5884 5883 5882 5881 5880 5879 5876 5875
5761 5765 5767 5770 5772 5776 5779 5782 5784 5785 5789 5793 5793 5792 5794 5797 5800 5802 5803 5805 5810 5810 5811 5816 5819 5818 5823 5830 5835 5839 5841 5841 5841 5842 5845 5848 5849 5851 5853 5854 5856 5858 5858 5859 5860 5862 5864 5865 5867 5868 5869 5870 5872 5872 5874 5874 5875 5876 5877 5878 5878 5878 5878 5879 5879 5880 5881 5881 5882 5883 5883 5883 5884 5884 5883 5883 5882 5881 5881 5880 5879 5878 5877 5875 5873 5871
5756 5759 5763 5766 5767 5769 5773 5776 5779 5781 5784 5787 5787 5788 5791 5793 5794 5796 5798 5801 5804 5805 5807 5812 5814 5813 5817 5822 5827 5833 5837 5839 5839 5838 5839 5842 5844 5848 5850 5850 5851 5853 5854 5854 5856 5858 5859 5861 5863 5864 5865 5867 5868 5869 5870 5871 5872 5874 5874 5875 5875 5875 5875 5876 5877 5878 5878 5879 5880 5880 5881 5881 5881 5881 5880 5879 5879 5878 5877 5877 5876 5874 5873 5872 5870 5867
5750 5753 5757 5761 5762 5763 5766 5771 5773 5774 5778 5781 5783 5785 5788 5790 5790 5791 5793 5796 5798 5799 5802 5806 5808 5808 5812 5815 5818 5824 5830 5832 5833 5834 5835 5837 5840 5843 5844 5844 5847 5849 5849 5850 5852 5853 5854 5857 5859 5861 5862 5864 5865 5866 5867 5868 5869 5870 5871 5872 5872 5872 5872 5873 5874 5875 5876 5877 5877 5878 5878 5878 5878 5877 5877 5876 5875 5875 5874 5873 5872 5871 5870 5868 5867 5864
5743 5747 5752 5755 5756 5758 5761 5765 5767 5769 5772 5773 5776 5779 5783 5785 5787 5788 5789 5790 5791 5793 5795 5798 5799 5802 5807 5810 5810 5813 5820 5824 5827 5830 5831 5832 5836 5838 5839 5840 5843 5845 5846 5847 5848 5849 5850 5852 5855 5858 5860 5861 5862 5863 5864 5865 5866 5867 5868 5869 5869 5869 5870 5871 5872 5872 5873 5874 5874 5875 5875 5874 5874 5874 5873 5872 5872 5871 5870 5869 5868 5867 5866 5864 5863 5861
5738 5741 5746 5749 5750 5754 5757 5760 5763 5766 5765 5764 5767 5771 5775 5778 5782 5784 5785 5786 5787 5789 5790 5790 5793 5797 5802 5805 5804 5805 5810 5814 5820 5825 5827 5828 5831 5833 5835 5838 5841 5843 5843 5844 5846 5846 5847 5848 5851 5854 5856 5857 5858 5859 5860 5862 5863 5864 5865 5865 5866 5867 5867 5868 5869 5870 5870 5870 5871 5871 5871 5871 5871 5870 5870 5869 5869 5868 5867 5865 5864 5863 5861 5859 5858 5856
5733 5734 5741 5744 5746 5750 5753 5756 5758 5758 5756 5759 5764 5767 5769 5773 5777 5780 5782 5784 5785 5786 5786 5787 5790 5793 5796 5797 5798 5800 5803 5805 5811 5817 5822 5824 5825 5827 5830 5833 5837 5839 5839 5839 5842 5843 5843 5844 5847 5849 5852 5853 5854 5855 5856 5858 5859 5860 5861 5862 5863 5864 5865 5866 5866 5867 5867 5867 5867 5868 5868 5868 5867 5867 5867 5866 5865 5864 5863 5862 5860 5858 5856 5855 5853 5851
5727 5729 5736 5740 5741 5745 5748 5750 5751 5750 5752 5757 5761 5763 5764 5766 5769 5771 5775 5780 5783 5784 5785 5787 5787 5789 5790 5791 5793 5795 5796 5798 5803 5809 5813 5817 5819 5821 5823 5827 5831 5834 5833 5834 5837 5840 5839 5840 5843 5845 5848 5849 5850 5851 5852 5854 5855 5856 5857 5859 5860 5861 5861 5862 5863 5863 5863 5863 5864 5864 5864 5864 5864 5863 5862 5862 5861 5860 5859 5857 5855 5853 5851 5850 5848 5846
5721 5725 5731 5734 5735 5739 5742 5743 5743 5746 5750 5754 5755 5756 5756 5757 5759 5761 5763 5769 5775 5778 5780 5782 5784 5786 5787 5787 5789 5790 5789 5791 5797 5802 5805 5810 5814 5816 5817 5821 5825 5828 5827 5828 5832 5834 5835 5837 5839 5842 5844 5845 5845 5847 5848 5850 5851 5853 5854 5856 5857 5857 5858 5858 5859 5859 5859 5860 5860 5860 5860 5860 5860 5859 5858 5857 5857 5855 5854 5852 5851 5848 5847 5845 5843 5841
5718 5721 5726 5728 5730 5733 5736 5738 5740 5743 5745 5747 5747 5747 5747 5749 5752 5754 5756 5761 5766 5770 5773 5775 5779 5782 5783 5784 5785 5785 5785 5786 5790 5795 5798 5803 5807 5809 5811 5814 5819 5821 5821 5823 5827 5828 5829 5832 5835 5837 5840 5840 5841 5842 5844 5846 5847 5849 5851 5852 5853 5854 5854 5855 5856 5856 5856 5856 5856 5856 5856 5856 5855 5854 5854 5853 5852 5851 5849 5848 5846 5844 5842 5840 5838 5836
5712 5716 5720 5723 5725 5728 5731 5733 5735 5737 5738 5739 5740 5741 5743 5746 5748 5749 5752 5757 5761 5764 5765 5767 5769 5772 5776 5779 5778 5778 5780 5781 5782 5788 5793 5796 5799 5802 5803 5805 5810 5813 5815 5818 5822 5824 5825 5828 5831 5833 5836 5837 5837 5838 5840 5842 5844 5845 5847 5848 5849 5850 5851 5851 5852 5852 5852 5852 5852 5852 5852 5851 5851 5850 5849 5849 5848 5846 5845 5843 5841 5840 5838 5836 5834 5832
5707 5711 5715 5717 5719 5722 5726 5727 5729 5731 5732 5734 5737 5738 5740 5743 5745 5748 5751 5754 5755 5757 5758 5758 5760 5762 5766 5770 5771 5772 5774 5774 5776 5782 5787 5790 5792 5795 5797 5800 5804 5807 5810 5813 5817 5819 5821 5824 5826 5828 5831 5832 5832 5834 5836 5838 5840 5842 5844 5845 5845 5846 5847 5847 5848 5848 5848 5848 5848 5848 5848 5847 5847 5846 5845 5845 5844 5842 5841 5839 5837 5835 5833 5831 5829 5827
5701 5705 5708 5711 5714 5717 5720 5722 5724 5726 5728 5730 5733 5735 5736 5738 5742 5745 5747 5748 5749 5751 5752 5754 5756 5758 5760 5763 5764 5766 5767 5768 5772 5778 5781 5785 5787 5787 5790 5796 5799 5801 5804 5808 5812 5815 5817 5819 5821 5824 5827 5828 5829 5831 5832 5834 5836 5838 5839 5840 5841 5842 5843 5843 5844 5844 5844 5844 5844 5844 5844 5843 5843 5842 5841 5841 5839 5838 5836 5834 5832 5830 5828 5826 5824 5822
5694 5699 5703 5705 5709 5713 5715 5717 5720 5722 5723 5725 5728 5730 5732 5735 5738 5739 5740 5743 5745 5747 5749 5751 5752 5754 5757 5758 5759 5761 5763 5765 5768 5772 5775 5778 5780 5781 5785 5791 5794 5796 5799 5803 5807 5810 5812 5815 5817 5820 5822 5823 5825 5827 5829 5830 5832 5833 5835 5836 5837 5837 5838 5839 5839 5839 5840 5840 5839 5839 5839 5839 5838 5838 5837 5836 5834 5832 5830 5828 5826 5824 5822 5820 5818 5817
5689 5693 5697 5700 5704 5709 5711 5714 5716 5718 5719 5721 5723 5725 5728 5731 5732 5732 5735 5739 5741 5743 5745 5747 5749 5750 5752 5754 5755 5757 5760 5761 5762 5764 5767 5769 5771 5775 5780 5784 5788 5791 5794 5798 5802 5805 5808 5810 5812 5814 5816 5819 5821 5822 5824 5826 5827 5828 5830 5831 5831 5832 5833 5834 5834 5834 5834 5834 5833 5833 5833 5833 5833 5832 5831 5830 5828 5826 5824 5823 5820 5818 5816 5815 5812 5811
5684 5688 5692 5696 5700 5704 5707 5709 5711 5713 5714 5715 5717 5720 5723 5725 5726 5729 5732 5734 5735 5737 5740 5742 5745 5747 5748 5750 5751 5753 5755 5756 5757 5758 5761 5763 5767 5770 5774 5778 5782 5786 5789 5793 5797 5800 5802 5805 5807 5809 5812 5814 5816 5817 5819 5821 5822 5823 5825 5825 5826 5827 5827 5828 5828 5828 5828 5828 5828 5828 5828 5828 5827 5826 5825 5824 5822 5820 5818 5817 5814 5811 5810 5808 5806 5805
5680 5684 5689 5693 5697 5700 5703 5705 5706 5708 5709 5710 5712 5716 5719 5722 5723 5726 5728 5728 5729 5732 5735 5738 5740 5742 5744 5746 5746 5747 5749 5750 5751 5754 5757 5759 5762 5765 5768 5772 5777 5781 5785 5789 5791 5794 5797 5800 5803 5806 5808 5809 5812 5814 5815 5816 5818 5819 5820 5821 5822 5822 5822 5823 5823 5823 5823 5823 5823 5823 5823 5822 5821 5820 5819 5817 5816 5814 5812 5810 5808 5806 5804 5802 5800 5799
5674 5677 5682 5687 5690 5694 5697 5699 5700 5701 5703 5705 5709 5712 5715 5717 5720 5721 5722 5723 5724 5727 5730 5733 5734 5737 5740 5741 5741 5742 5744 5745 5746 5748 5751 5753 5756 5760 5763 5767 5772 5776 5780 5783 5786 5789 5793 5796 5799 5801 5803 5806 5808 5809 5811 5812 5813 5814 5815 5816 5817 5817 5818 5818 5817 5817 5817 5818 5818 5817 5817 5816 5815 5814 5813 5811 5810 5808 5806 5804 5802 5800 5799 5797 5795 5793
5668 5671 5675 5680 5683 5687 5690 5692 5693 5696 5698 5701 5705 5707 5708 5711 5715 5717 5718 5719 5720 5722 5725 5727 5729 5731 5735 5737 5737 5738 5740 5741 5742 5743 5745 5747 5751 5755 5758 5762 5766 5771 5775 5778 5782 5786 5789 5792 5794 5797 5799 5801 5803 5804 5805 5807 5808 5809 5810 5811 5812 5812 5812 5811 5811 5811 5812 5813 5812 5811 5810 5810 5809 5808 5807 5805 5804 5802 5800 5798 5797 5796 5794 5792 5790 5788
5664 5668 5672 5676 5679 5681 5683 5686 5689 5692 5695 5697 5701 5703 5704 5707 5710 5712 5714 5715 5715 5717 5720 5723 5724 5726 5729 5732 5734 5735 5736 5737 5738 5739 5741 5744 5747 5751 5755 5758 5762 5766 5770 5774 5777 5780 5783 5786 5789 5791 5794 5796 5797 5799 5800 5801 5803 5804 5804 5805 5806 5806 5805 5805 5805 5805 5805 5806 5805 5804 5804 5804 5803 5802 5801 5800 5798 5796 5795 5793 5792 5790 5788 5786 5784 5783
5660 5664 5668 5670 5672 5674 5678 5681 5684 5688 5691 5693 5697 5699 5701 5703 5705 5707 5709 5710 5712 5714 5716 5718 5719 5721 5723 5726 5728 5730 5732 5733 5734 5735 5737 5740 5743 5747 5751 5755 5759 5762 5765 5769 5772 5775 5778 5781 5783 5786 5789 5791 5793 5794 5796 5796 5797 5798 5799 5800 5801 5801 5800 5799 5798 5798 5799 5800 5799 5798 5798 5798 5798 5797 5795 5794 5793 5791 5789 5788 5786 5784 5782 5781 5779 5778
5656 5660 5663 5665 5667 5671 5674 5677 5681 5685 5687 5689 5692 5695 5697 5699 5701 5703 5704 5705 5707 5709 5710 5712 5715 5716 5718 5721 5723 5726 5729 5730 5731 5732 5734 5736 5739 5743 5747 5751 5754 5757 5760 5764 5767 5770 5773 5776 5779 5781 5783 5785 5787 5789 5790 5791 5792 5793 5794 5796 5796 5796 5796 5794 5793 5793 5795 5794 5793 5793 5792 5792 5791 5790 5790 5789 5787 5785 5784 5782 5780 5778 5777 5776 5774 5772
5653 5656 5659 5662 5664 5667 5670 5673 5677 5680 5682 5685 5688 5691 5693 5696 5698 5699 5699 5700 5702 5704 5706 5708 5710 5712 5714 5717 5720 5723 5725 5726 5727 5729 5731 5733 5736 5739 5742 5746 5749 5752 5756 5759 5761 5764 5767 5770 5773 5776 5778 5780 5781 5782 5784 5785 5787 5788 5790 5791 5791 5791 5790 5789 5788 5788 5789 5789 5788 5787 5787 5786 5785 5784 5784 5784 5782 5779 5778 5777 5775 5774 5772 5770 5769 5767
5650 5652 5655 5658 5661 5664 5666 5669 5673 5675 5678 5682 5685 5687 5689 5691 5693 5694 5694 5696 5698 5700 5701 5703 5705 5707 5710 5713 5716 5719 5721 5722 5724 5727 5729 5731 5733 5735 5738 5742 5745 5748 5751 5754 5757 5760 5763 5765 5768 5770 5772 5774 5775 5777 5779 5781 5782 5783 5784 5785 5785 5785 5784 5784 5783 5783 5783 5783 5782 5781 5780 5780 5779 5779 5779 5778 5776 5774 5773 5772 5770 5769 5767 5765 5764 5762